WGS F8 (USA 272)

Last updated on Sun Oct 06 2024 00:02:41 GMT+0000 (Coordinated Universal Time)

1 41879U 16075A 24279.39702310 -.00000193 00000+0 00000+0 0 9999 2 41879 0.0168 193.8477 0000209 307.8135 165.6192 1.00269296 28604
UTC large
Height (km)
Speed (km/s)
/
Latitude / Longitude
Inclination (degrees)
Orbital Period (minutes)
Azimuth
Elevation
Range (km)
Doppler Factor

Next 0 passes for location: London (51.5072 / 0.1276)

Sorry there are no passes over London.